Location: Appeville
(49.3218°N, 1.3427°W)
Time: 18:18:35
(UTC+00:00)

STARLINK 1054 - Pass Details

Date: 08 December 2019
Orbit: 549 x 550 km, 53.0° (Epoch: 28 January)

Event Time Altitude Azimuth Distance (km) Brightness Sun altitude
Exits shadow 06:45:24 12° 279° (W) 1,700 5.5 -9.6°
Maximum altitude 06:48:40 30° 220° (SW) 1,003 4.8 -9.1°
Drops below altitude 10° 06:52:18 10° 159° (SSE) 1,824 7.0 -8.6°
Sets 06:54:43 0° 149° (SSE) 2,714 8.2 -8.2°
